Weather History for K3LF - August, 2014

Change the Weather History Date:

Friday, August 22, 2014

  Actual Average (KSPI) Record (KSPI)
Temperature  
Mean Temperature 78 °F 74 °F  
Max Temperature 86 °F 85 °F 104 °F (1936)
Min Temperature 70 °F 63 °F 51 °F (1950)
Degree Days  
Heating Degree Days 0 0  
Month to date heating degree days 0  
Since 1 June heating degree days 16  
Since 1 July heating degree days 1  
Cooling Degree Days 13 9  
Month to date cooling degree days 215  
Year to date cooling degree days 894  
Since 1 June cooling degree days 790  
Growing Degree Days 28 (Base 50)    
Moisture  
Dew Point 75 °F    
Average Humidity 87    
Maximum Humidity 97    
Minimum Humidity 73    
Precipitation  
Precipitation 0.00 in 0.10 in 1.53 in (2001)
Month to date precipitation 2.32  
Year to date precipitation 24.73  
Snow  
Snow 0.00 in 0.00 in 0.00 in ()
Month to date snowfall 0.0  
Since 1 June snowfall 0.0  
Since 1 July snowfall 0.0  
Snow Depth -    
Sea Level Pressure  
Sea Level Pressure 29.97 in    
Wind  
Wind Speed 7 mph (South)    
Max Wind Speed 13 mph    
Max Gust Speed -    
Visibility 9 miles    
Events      
T = Trace of Precipitation, MM = Missing Value Source: NWS Daily Summary

Daily Weather History Graph

Daily Weather History Graph

Search for Another Location

Airport or City:

Trip Planner

Search our weather history database for the weather conditions in past years. The results will help you decide how hot, cold, wet, or windy it might be!

Date:

Astronomy

Aug. 22, 2014 Rise Set
Actual Time 6:18 AM CDT 7:44 PM CDT
Civil Twilight 5:50 AM CDT 8:12 PM CDT
Nautical Twilight 5:16 AM CDT 8:45 PM CDT
Astronomical Twilight 4:40 AM CDT 9:21 PM CDT
Moon 3:41 AM CDT (8/22) 5:52 PM CDT (8/22)
Length of Visible Light 14h 21m
Length of Day
13h 25m
Waning Crescent, 7% of the Moon is Illuminated
Aug 22
Waning Crescent
Aug 25
New
Sep 2
First Quarter
Sep 8
Full
Sep 15
Last Quarter

Hourly Weather History & Observations

Time (CDT) Temp. Heat Index Dew Point Humidity Pressure Visibility Wind Dir Wind Speed Gust Speed Precip Events Conditions
12:15 AM 76.6 °F - 74.8 °F 94% 29.98 in 7.0 mi South 8.1 mph - N/A   Clear
12:35 AM 76.3 °F - 74.7 °F 95% 29.97 in 10.0 mi South 8.1 mph - N/A   Clear
12:55 AM 75.7 °F - 74.5 °F 96% 29.97 in 7.0 mi South 8.1 mph - N/A   Clear
1:15 AM 75.2 °F - 74.1 °F 96% 29.95 in 7.0 mi South 6.9 mph - N/A   Clear
1:55 AM 75.2 °F - 74.3 °F 97% 29.95 in 7.0 mi South 8.1 mph - N/A   Clear
2:15 AM 75.2 °F - 74.1 °F 96% 29.95 in 7.0 mi South 8.1 mph - N/A   Clear
2:35 AM 75.2 °F - 73.9 °F 96% 29.94 in 7.0 mi South 9.2 mph - N/A   Clear
2:55 AM 75.4 °F - 73.6 °F 94% 29.93 in 10.0 mi SSW 8.1 mph - N/A   Clear
3:15 AM 75.2 °F - 73.4 °F 94% 29.93 in 10.0 mi South 8.1 mph - N/A   Clear
3:35 AM 74.5 °F - 72.9 °F 95% 29.94 in 10.0 mi SSW 6.9 mph - N/A   Clear
3:55 AM 76.1 °F - 72.3 °F 88% 29.95 in 10.0 mi SSW 8.1 mph - N/A   Clear
4:15 AM 75.7 °F - 71.6 °F 87% 29.95 in 10.0 mi SW 8.1 mph - N/A   Clear
4:35 AM 73.0 °F - 71.6 °F 95% 29.95 in 10.0 mi SW 4.6 mph - N/A   Clear
4:55 AM 72.5 °F - 70.9 °F 95% 29.95 in 10.0 mi SSW 5.8 mph - N/A   Clear
5:15 AM 72.0 °F - 70.3 °F 95% 29.95 in 10.0 mi SSW 4.6 mph - N/A   Clear
5:35 AM 71.8 °F - 69.8 °F 93% 29.96 in 10.0 mi SSW 4.6 mph - N/A   Clear
5:55 AM 71.6 °F - 69.3 °F 92% 29.96 in 10.0 mi SW 5.8 mph - N/A   Clear
6:15 AM 71.4 °F - 69.3 °F 93% 29.97 in 10.0 mi WSW 3.5 mph - N/A   Clear
6:35 AM 72.0 °F - 69.3 °F 91% 29.97 in 10.0 mi SW 4.6 mph - N/A   Clear
6:55 AM 70.7 °F - 68.9 °F 94% 29.98 in 10.0 mi Calm Calm - N/A   Clear
7:15 AM 71.2 °F - 69.8 °F 95% 29.98 in 7.0 mi Calm Calm - N/A   Clear
7:35 AM 73.8 °F - 71.4 °F 92% 29.99 in 10.0 mi Calm Calm - N/A   Clear
7:55 AM 76.1 °F - 71.6 °F 86% 30.00 in 10.0 mi WSW 4.6 mph - N/A   Clear
8:15 AM 77.0 °F - 72.3 °F 85% 30.02 in 10.0 mi West 5.8 mph - N/A   Clear
8:35 AM 78.4 °F - 72.7 °F 82% 30.03 in 10.0 mi West 6.9 mph - N/A   Clear
8:55 AM 79.7 °F - 73.0 °F 80% 30.02 in 10.0 mi West 4.6 mph - N/A   Clear
9:15 AM 81.1 °F 86.6 °F 73.9 °F 79% 30.02 in 10.0 mi West 8.1 mph - N/A   Clear
9:35 AM 82.2 °F 88.5 °F 74.5 °F 77% 30.02 in 10.0 mi West 9.2 mph - N/A   Clear
9:55 AM 82.8 °F 89.5 °F 74.5 °F 76% 30.01 in 10.0 mi WNW 9.2 mph - N/A   Scattered Clouds
10:15 AM 82.8 °F 89.5 °F 74.7 °F 76% 30.02 in 10.0 mi West 8.1 mph - N/A   Scattered Clouds
10:55 AM 82.4 °F 87.9 °F 73.0 °F 73% 30.02 in 10.0 mi Calm Calm - N/A   Clear
11:15 AM 82.9 °F 89.7 °F 74.3 °F 75% 30.02 in 10.0 mi NE 6.9 mph - N/A   Scattered Clouds
11:55 AM 83.3 °F 90.2 °F 74.1 °F 74% 30.02 in 10.0 mi ESE 6.9 mph - N/A   Clear
12:15 PM 83.7 °F 90.7 °F 74.3 °F 73% 30.02 in 10.0 mi East 3.5 mph - N/A   Clear
12:35 PM 82.8 °F 89.8 °F 75.0 °F 77% 30.02 in 10.0 mi South 4.6 mph - N/A   Clear
12:55 PM 82.8 °F 90.4 °F 75.6 °F 79% 30.01 in 10.0 mi South 9.2 mph - N/A   Clear
1:15 PM 82.8 °F 90.7 °F 75.9 °F 80% 30.00 in 10.0 mi South 8.1 mph - N/A   Clear
1:35 PM 83.3 °F 91.8 °F 76.1 °F 79% 29.99 in 10.0 mi South 9.2 mph - N/A   Clear
1:55 PM 82.9 °F 91.2 °F 76.1 °F 80% 29.98 in 10.0 mi South 8.1 mph - N/A   Clear
2:15 PM 83.1 °F 91.9 °F 76.6 °F 81% 29.98 in 10.0 mi South 6.9 mph - N/A   Clear
2:35 PM 84.4 °F 94.6 °F 77.4 °F 79% 29.98 in 10.0 mi SSE 5.8 mph - N/A   Clear
2:55 PM 84.6 °F 95.5 °F 77.7 °F 80% 29.97 in 10.0 mi South 6.9 mph - N/A   Clear
3:15 PM 86.0 °F 98.3 °F 77.9 °F 77% 29.96 in 10.0 mi South 10.4 mph - N/A   Clear
3:35 PM 86.5 °F 100.4 °F 78.8 °F 78% 29.95 in 10.0 mi South 11.5 mph - N/A   Scattered Clouds
3:55 PM 86.4 °F 100.4 °F 79.0 °F 79% 29.95 in 7.0 mi SSW 12.7 mph - N/A   Scattered Clouds
4:15 PM 86.7 °F 100.9 °F 79.0 °F 78% 29.95 in 10.0 mi South 10.4 mph - N/A   Scattered Clouds
4:55 PM 86.0 °F 99.3 °F 78.6 °F 79% 29.94 in 7.0 mi South 9.2 mph - N/A   Clear
5:15 PM 86.0 °F 99.8 °F 79.2 °F 80% 29.94 in 10.0 mi SSW 9.2 mph - N/A   Clear
5:35 PM 85.5 °F 98.6 °F 79.0 °F 81% 29.94 in 10.0 mi South 6.9 mph - N/A   Clear
5:55 PM 85.1 °F 97.6 °F 78.6 °F 81% 29.94 in 7.0 mi South 5.8 mph - N/A   Clear
6:15 PM 84.9 °F 97.0 °F 78.6 °F 81% 29.94 in 10.0 mi SSE 4.6 mph - N/A   Clear
6:35 PM 84.6 °F 96.8 °F 78.8 °F 83% 29.94 in 7.0 mi SSE 4.6 mph - N/A   Clear
6:55 PM 84.2 °F 94.9 °F 77.9 °F 81% 29.94 in 7.0 mi SE 5.8 mph - N/A   Clear
7:15 PM 82.9 °F 92.8 °F 77.9 °F 85% 29.94 in 7.0 mi SE 3.5 mph - N/A   Scattered Clouds
7:35 PM 81.9 °F 90.2 °F 77.5 °F 87% 29.94 in 7.0 mi ESE 4.6 mph - N/A   Clear
7:55 PM 80.6 °F 87.1 °F 77.2 °F 89% 29.94 in 7.0 mi ESE 4.6 mph - N/A   Clear
8:15 PM 79.7 °F - 77.0 °F 91% 29.94 in 7.0 mi ESE 4.6 mph - N/A   Clear
8:35 PM 79.3 °F - 76.6 °F 91% 29.95 in 7.0 mi East 3.5 mph - N/A   Clear
8:55 PM 79.2 °F - 77.0 °F 93% 29.96 in 7.0 mi East 4.6 mph - N/A   Clear
9:15 PM 79.0 °F - 77.0 °F 94% 29.97 in 7.0 mi East 4.6 mph - N/A   Clear
9:35 PM 78.8 °F - 77.0 °F 94% 29.97 in 7.0 mi East 4.6 mph - N/A   Clear
9:55 PM 78.3 °F - 76.5 °F 94% 29.98 in 7.0 mi East 5.8 mph - N/A   Clear
10:15 PM 78.3 °F - 76.5 °F 94% 29.97 in 7.0 mi East 5.8 mph - N/A   Clear
10:55 PM 77.9 °F - 76.6 °F 96% 29.97 in 7.0 mi ESE 5.8 mph - N/A   Clear
11:15 PM 77.9 °F - 76.5 °F 95% 29.97 in 7.0 mi ESE 5.8 mph - N/A   Clear
11:55 PM 77.9 °F - 76.1 °F 94% 29.96 in 7.0 mi ESE 5.8 mph - N/A   Clear